Time,TemperatureF,DewpointF,PressureIn,WindDirection,WindDirectionDegrees,WindSpeedMPH,WindSpeedGustMPH,Humidity,HourlyPrecipIn,Conditions,Clouds,dailyrainin,SoftwareType,DateUTC
2013-02-12 00:11:00,45.3,40.0,30.22,WNW,286,2.0,-999.0,80,-99.99,,,0.00,weatherlink.com 1.10,2013-02-12 08:11:00,
2013-02-12 00:26:00,45.0,40.0,30.22,WNW,287,2.0,-999.0,82,-99.99,,,0.00,weatherlink.com 1.10,2013-02-12 08:26:00,
2013-02-12 00:41:00,45.1,40.0,30.22,SW,225,0.0,-999.0,83,-99.99,,,0.00,weatherlink.com 1.10,2013-02-12 08:41:00,
2013-02-12 00:56:00,44.8,40.0,30.23,SW,227,0.0,-999.0,83,-99.99,,,0.00,weatherlink.com 1.10,2013-02-12 08:56:00,
2013-02-12 01:11:00,44.6,40.0,30.23,WNW,300,1.0,-999.0,84,-99.99,,,0.00,weatherlink.com 1.10,2013-02-12 09:11:00,
2013-02-12 01:26:00,44.5,40.0,30.24,WSW,257,1.0,-999.0,85,-99.99,,,0.00,weatherlink.com 1.10,2013-02-12 09:26:00,
2013-02-12 01:41:00,44.4,41.0,30.23,WSW,257,0.0,-999.0,86,-99.99,,,0.00,weatherlink.com 1.10,2013-02-12 09:41:00,
2013-02-12 01:56:00,44.6,40.0,30.23,WSW,257,3.0,-999.0,84,-99.99,,,0.00,weatherlink.com 1.10,2013-02-12 09:56:00,
2013-02-12 02:11:00,44.5,40.0,30.24,WSW,256,0.0,-999.0,85,-99.99,,,0.00,weatherlink.com 1.10,2013-02-12 10:11:00,
2013-02-12 02:26:00,44.6,40.0,30.24,WSW,257,1.0,-999.0,83,-99.99,,,0.00,weatherlink.com 1.10,2013-02-12 10:26:00,
2013-02-12 02:41:00,44.1,39.0,30.24,WSW,257,0.0,-999.0,82,-99.99,,,0.00,weatherlink.com 1.10,2013-02-12 10:41:00,
2013-02-12 02:56:00,43.6,39.0,30.24,WSW,257,0.0,-999.0,85,-99.99,,,0.00,weatherlink.com 1.10,2013-02-12 10:56:00,
2013-02-12 03:11:00,43.9,40.0,30.24,WSW,257,0.0,-999.0,85,-99.99,,,0.00,weatherlink.com 1.10,2013-02-12 11:11:00,
2013-02-12 03:26:00,44.5,40.0,30.25,WSW,256,0.0,-999.0,83,-99.99,,,0.00,weatherlink.com 1.10,2013-02-12 11:26:00,
2013-02-12 03:41:00,44.5,40.0,30.25,WSW,256,0.0,-999.0,83,-99.99,,,0.00,weatherlink.com 1.10,2013-02-12 11:41:00,
2013-02-12 03:56:00,43.9,39.0,30.25,WSW,257,0.0,-999.0,82,-99.99,,,0.00,weatherlink.com 1.10,2013-02-12 11:56:00,
2013-02-12 04:11:00,43.3,39.0,30.25,WSW,257,0.0,-999.0,83,-99.99,,,0.00,weatherlink.com 1.10,2013-02-12 12:11:00,
2013-02-12 04:26:00,42.3,38.0,30.26,WSW,257,1.0,-999.0,86,-99.99,,,0.00,weatherlink.com 1.10,2013-02-12 12:26:00,
2013-02-12 04:41:00,42.5,40.0,30.25,SW,221,0.0,-999.0,89,-99.99,,,0.00,weatherlink.com 1.10,2013-02-12 12:41:00,
2013-02-12 04:56:00,42.4,39.0,30.26,SW,218,0.0,-999.0,87,-99.99,,,0.00,weatherlink.com 1.10,2013-02-12 12:56:00,
2013-02-12 05:11:00,42.5,39.0,30.26,SW,218,0.0,-999.0,88,-99.99,,,0.00,weatherlink.com 1.10,2013-02-12 13:11:00,
2013-02-12 05:26:00,43.2,40.0,30.27,SW,217,0.0,-999.0,89,-99.99,,,0.00,weatherlink.com 1.10,2013-02-12 13:26:00,
2013-02-12 05:40:00,42.6,40.0,30.27,SW,217,0.0,-999.0,89,-99.99,,,0.00,weatherlink.com 1.10,2013-02-12 13:40:00,
2013-02-12 05:56:00,41.9,39.0,30.28,SW,217,0.0,-999.0,89,-99.99,,,0.00,weatherlink.com 1.10,2013-02-12 13:56:00,
2013-02-12 06:11:00,41.3,38.0,30.29,SW,217,1.0,-999.0,89,-99.99,,,0.00,weatherlink.com 1.10,2013-02-12 14:11:00,
2013-02-12 06:26:00,42.8,40.0,30.29,East,99,3.0,-999.0,91,-99.99,,,0.00,weatherlink.com 1.10,2013-02-12 14:26:00,
2013-02-12 06:41:00,42.9,41.0,30.30,SE,127,4.0,-999.0,91,-99.99,,,0.00,weatherlink.com 1.10,2013-02-12 14:41:00,
2013-02-12 06:56:00,42.6,40.0,30.30,SE,127,0.0,-999.0,91,-99.99,,,0.00,weatherlink.com 1.10,2013-02-12 14:56:00,
2013-02-12 07:11:00,42.4,40.0,30.31,SE,126,0.0,-999.0,92,-99.99,,,0.00,weatherlink.com 1.10,2013-02-12 15:11:00,
2013-02-12 07:26:00,42.9,41.0,30.32,SE,126,0.0,-999.0,92,-99.99,,,0.00,weatherlink.com 1.10,2013-02-12 15:26:00,
2013-02-12 07:41:00,43.5,42.0,30.33,SE,126,0.0,-999.0,93,-99.99,,,0.00,weatherlink.com 1.10,2013-02-12 15:41:00,
2013-02-12 07:56:00,43.5,42.0,30.33,SE,127,0.0,-999.0,93,-99.99,,,0.00,weatherlink.com 1.10,2013-02-12 15:56:00,
2013-02-12 08:11:00,43.9,42.0,30.34,SE,127,0.0,-999.0,91,-99.99,,,0.00,weatherlink.com 1.10,2013-02-12 16:11:00,
2013-02-12 08:26:00,44.2,42.0,30.34,SE,127,1.0,-999.0,91,-99.99,,,0.00,weatherlink.com 1.10,2013-02-12 16:26:00,
2013-02-12 08:41:00,44.1,42.0,30.35,SE,127,0.0,-999.0,91,-99.99,,,0.00,weatherlink.com 1.10,2013-02-12 16:41:00,
2013-02-12 08:56:00,45.1,43.0,30.35,SE,127,0.0,-999.0,91,-99.99,,,0.00,weatherlink.com 1.10,2013-02-12 16:56:00,
2013-02-12 09:11:00,47.5,45.0,30.36,SE,134,0.0,-999.0,90,-99.99,,,0.00,weatherlink.com 1.10,2013-02-12 17:11:00,
2013-02-12 09:26:00,47.9,44.0,30.36,SE,134,0.0,-999.0,86,-99.99,,,0.00,weatherlink.com 1.10,2013-02-12 17:26:00,
2013-02-12 09:41:00,48.8,44.0,30.36,SE,136,0.0,-999.0,83,-99.99,,,0.00,weatherlink.com 1.10,2013-02-12 17:41:00,
2013-02-12 09:56:00,51.3,45.0,30.36,SSE,159,0.0,-999.0,80,-99.99,,,0.00,weatherlink.com 1.10,2013-02-12 17:56:00,
2013-02-12 10:11:00,50.9,42.0,30.36,East,101,0.0,-999.0,72,-99.99,,,0.00,weatherlink.com 1.10,2013-02-12 18:11:00,
2013-02-12 10:25:00,51.5,43.0,30.36,ESE,123,0.0,-999.0,72,-99.99,,,0.00,weatherlink.com 1.10,2013-02-12 18:25:00,
2013-02-12 10:40:00,52.6,43.0,30.36,ESE,112,0.0,-999.0,71,-99.99,,,0.00,weatherlink.com 1.10,2013-02-12 18:40:00,
2013-02-12 10:55:00,51.7,40.0,30.37,ESE,106,0.0,-999.0,65,-99.99,,,0.00,weatherlink.com 1.10,2013-02-12 18:55:00,
2013-02-12 11:10:00,51.0,39.0,30.37,ESE,109,3.0,-999.0,63,-99.99,,,0.00,weatherlink.com 1.10,2013-02-12 19:10:00,
2013-02-12 11:25:00,51.9,39.0,30.37,ESE,103,0.0,-999.0,62,-99.99,,,0.00,weatherlink.com 1.10,2013-02-12 19:25:00,
2013-02-12 11:40:00,53.0,39.0,30.37,ESE,110,2.0,-999.0,60,-99.99,,,0.00,weatherlink.com 1.10,2013-02-12 19:40:00,
2013-02-12 11:56:00,53.0,38.0,30.36,East,100,1.0,-999.0,57,-99.99,,,0.00,weatherlink.com 1.10,2013-02-12 19:56:00,
2013-02-12 12:11:00,52.9,37.0,30.35,ESE,103,3.0,-999.0,55,-99.99,,,0.00,weatherlink.com 1.10,2013-02-12 20:11:00,
2013-02-12 12:26:00,53.1,38.0,30.35,ESE,109,1.0,-999.0,56,-99.99,,,0.00,weatherlink.com 1.10,2013-02-12 20:26:00,
2013-02-12 12:41:00,53.3,37.0,30.35,East,90,3.0,-999.0,54,-99.99,,,0.00,weatherlink.com 1.10,2013-02-12 20:41:00,
2013-02-12 13:11:00,56.4,38.0,30.34,ESE,107,4.0,-999.0,51,-99.99,,,0.00,weatherlink.com 1.10,2013-02-12 21:11:00,
2013-02-12 13:26:00,56.6,37.0,30.34,East,90,1.0,-999.0,48,-99.99,,,0.00,weatherlink.com 1.10,2013-02-12 21:26:00,
2013-02-12 13:41:00,57.0,36.0,30.33,East,86,0.0,-999.0,46,-99.99,,,0.00,weatherlink.com 1.10,2013-02-12 21:41:00,
2013-02-12 13:56:00,57.1,36.0,30.32,ESE,111,0.0,-999.0,46,-99.99,,,0.00,weatherlink.com 1.10,2013-02-12 21:56:00,
2013-02-12 14:11:00,58.4,39.0,30.32,SE,124,0.0,-999.0,48,-99.99,,,0.00,weatherlink.com 1.10,2013-02-12 22:11:00,
2013-02-12 14:26:00,61.7,39.0,30.32,South,173,0.0,-999.0,43,-99.99,,,0.00,weatherlink.com 1.10,2013-02-12 22:26:00,
2013-02-12 14:41:00,61.5,39.0,30.32,NW,315,0.0,-999.0,44,-99.99,,,0.00,weatherlink.com 1.10,2013-02-12 22:41:00,
2013-02-12 14:56:00,59.0,38.0,30.32,East,101,4.0,-999.0,46,-99.99,,,0.00,weatherlink.com 1.10,2013-02-12 22:56:00,
2013-02-12 15:11:00,58.1,38.0,30.31,East,98,5.0,-999.0,47,-99.99,,,0.00,weatherlink.com 1.10,2013-02-12 23:11:00,
2013-02-12 15:26:00,57.8,37.0,30.31,SE,138,0.0,-999.0,47,-99.99,,,0.00,weatherlink.com 1.10,2013-02-12 23:26:00,
2013-02-12 15:41:00,56.9,37.0,30.31,East,99,3.0,-999.0,47,-99.99,,,0.00,weatherlink.com 1.10,2013-02-12 23:41:00,
2013-02-12 15:56:00,57.2,37.0,30.31,East,99,0.0,-999.0,48,-99.99,,,0.00,weatherlink.com 1.10,2013-02-12 23:56:00,
2013-02-12 16:11:00,57.2,37.0,30.31,East,99,0.0,-999.0,47,-99.99,,,0.00,weatherlink.com 1.10,2013-02-13 00:11:00,
2013-02-12 16:26:00,56.5,36.0,30.30,East,99,0.0,-999.0,46,-99.99,,,0.00,weatherlink.com 1.10,2013-02-13 00:26:00,
2013-02-12 16:41:00,56.6,36.0,30.30,East,99,0.0,-999.0,46,-99.99,,,0.00,weatherlink.com 1.10,2013-02-13 00:41:00,
2013-02-12 16:56:00,56.9,40.0,30.30,East,99,0.0,-999.0,53,-99.99,,,0.00,weatherlink.com 1.10,2013-02-13 00:56:00,
2013-02-12 17:11:00,57.0,38.0,30.30,East,99,0.0,-999.0,50,-99.99,,,0.00,weatherlink.com 1.10,2013-02-13 01:11:00,
2013-02-12 17:26:00,56.6,37.0,30.31,East,99,0.0,-999.0,48,-99.99,,,0.00,weatherlink.com 1.10,2013-02-13 01:26:00,
2013-02-12 17:41:00,55.5,40.0,30.30,East,99,0.0,-999.0,57,-99.99,,,0.00,weatherlink.com 1.10,2013-02-13 01:41:00,
2013-02-12 17:56:00,54.2,37.0,30.31,NW,325,4.0,-999.0,53,-99.99,,,0.00,weatherlink.com 1.10,2013-02-13 01:56:00,
2013-02-12 18:11:00,53.7,37.0,30.30,NNW,328,1.0,-999.0,54,-99.99,,,0.00,weatherlink.com 1.10,2013-02-13 02:11:00,
2013-02-12 18:26:00,53.5,37.0,30.30,NNW,328,0.0,-999.0,54,-99.99,,,0.00,weatherlink.com 1.10,2013-02-13 02:26:00,
2013-02-12 18:41:00,53.2,40.0,30.30,NNW,328,0.0,-999.0,61,-99.99,,,0.00,weatherlink.com 1.10,2013-02-13 02:41:00,
2013-02-12 18:56:00,52.9,41.0,30.31,NNW,329,0.0,-999.0,65,-99.99,,,0.00,weatherlink.com 1.10,2013-02-13 02:56:00,
2013-02-12 19:11:00,51.9,41.0,30.30,NNW,329,0.0,-999.0,66,-99.99,,,0.00,weatherlink.com 1.10,2013-02-13 03:11:00,
2013-02-12 19:26:00,52.4,41.0,30.31,NNW,329,0.0,-999.0,65,-99.99,,,0.00,weatherlink.com 1.10,2013-02-13 03:26:00,
2013-02-12 19:41:00,52.4,40.0,30.31,NW,315,0.0,-999.0,63,-99.99,,,0.00,weatherlink.com 1.10,2013-02-13 03:41:00,
2013-02-12 19:56:00,51.8,40.0,30.30,West,281,0.0,-999.0,64,-99.99,,,0.00,weatherlink.com 1.10,2013-02-13 03:56:00,
2013-02-12 20:11:00,51.5,40.0,30.31,WNW,290,0.0,-999.0,65,-99.99,,,0.00,weatherlink.com 1.10,2013-02-13 04:11:00,
2013-02-12 20:26:00,52.2,40.0,30.31,WNW,284,0.0,-999.0,64,-99.99,,,0.00,weatherlink.com 1.10,2013-02-13 04:26:00,
2013-02-12 20:41:00,52.3,40.0,30.32,WNW,284,0.0,-999.0,63,-99.99,,,0.00,weatherlink.com 1.10,2013-02-13 04:41:00,
2013-02-12 20:56:00,52.6,39.0,30.32,WNW,285,0.0,-999.0,60,-99.99,,,0.00,weatherlink.com 1.10,2013-02-13 04:56:00,
2013-02-12 21:11:00,51.5,38.0,30.32,WNW,285,0.0,-999.0,61,-99.99,,,0.00,weatherlink.com 1.10,2013-02-13 05:11:00,
2013-02-12 21:26:00,51.1,38.0,30.32,WNW,288,0.0,-999.0,61,-99.99,,,0.00,weatherlink.com 1.10,2013-02-13 05:26:00,
2013-02-12 21:41:00,51.2,39.0,30.32,WNW,288,0.0,-999.0,64,-99.99,,,0.00,weatherlink.com 1.10,2013-02-13 05:41:00,
2013-02-12 21:56:00,50.9,39.0,30.32,WNW,288,0.0,-999.0,63,-99.99,,,0.00,weatherlink.com 1.10,2013-02-13 05:56:00,
2013-02-12 22:11:00,50.2,40.0,30.33,WNW,288,0.0,-999.0,67,-99.99,,,0.00,weatherlink.com 1.10,2013-02-13 06:11:00,
2013-02-12 22:26:00,50.8,39.0,30.32,NNW,335,1.0,-999.0,65,-99.99,,,0.00,weatherlink.com 1.10,2013-02-13 06:26:00,
2013-02-12 22:41:00,50.4,39.0,30.32,NNW,337,1.0,-999.0,65,-99.99,,,0.00,weatherlink.com 1.10,2013-02-13 06:41:00,
2013-02-12 22:56:00,49.7,39.0,30.32,NNW,337,0.0,-999.0,66,-99.99,,,0.00,weatherlink.com 1.10,2013-02-13 06:56:00,
2013-02-12 23:11:00,49.4,38.0,30.32,NNW,339,0.0,-999.0,66,-99.99,,,0.00,weatherlink.com 1.10,2013-02-13 07:11:00,
2013-02-12 23:26:00,48.3,39.0,30.33,NNW,339,0.0,-999.0,69,-99.99,,,0.00,weatherlink.com 1.10,2013-02-13 07:26:00,
2013-02-12 23:41:00,48.3,39.0,30.33,NNW,338,0.0,-999.0,69,-99.99,,,0.00,weatherlink.com 1.10,2013-02-13 07:41:00,
2013-02-12 23:56:00,48.3,39.0,30.32,NE,54,0.0,-999.0,69,-99.99,,,0.00,weatherlink.com 1.10,2013-02-13 07:56:00,